BOSTON 16 NM East of Boston, MA current weather conditions

sailwx.info

Wind from 280 at 17 knots gusting 23

Wave height 0.7 meters (2 feet), 3 second period

Air temperature 5.1° C
Dewpoint 0.2° C
Water temperature 8.9° C

Last reported at 2019-Dec-05 15:50 UTC.
Time now 2019-Dec-05 17:14 UTC

Location: N 42°18' W 070°42'.
View on Google Maps.

See reports from other nearby stations

  
Tides and Currents Weather Stations Pressure Air Temp Water Temp Dewpoint Dewpoint Depression Visibility Wind Speed Wind Dir Waves Ship Positions
date/time (UTC)wind fromknots sea level pressurealtimeterstation pressurevisibilityair tempwater tempwave heightnotes
2019-Dec-05 15:50 280 17 gusting 23 5.1 8.9 0.7
2019-Dec-05 14:50 280 19 gusting 23 4.4 8.9 0.7
2019-Dec-05 13:50 270 15 gusting 19 4.3 8.8 0.6
2019-Dec-05 12:50 270 15 gusting 19 4.0 8.9 0.6
2019-Dec-05 11:50 270 13 gusting 15 4.0 8.9 0.6
2019-Dec-05 10:50 270 15 gusting 17 4.0 8.9 0.6
2019-Dec-05 09:50 260 13 gusting 15 3.9 8.9 0.5
2019-Dec-05 08:50 260 13 gusting 15 3.7 8.9 0.5
2019-Dec-05 07:50 280 13 gusting 15 3.9 8.9 0.5
2019-Dec-05 06:50 270 11 gusting 13 3.5 8.9 0.5
2019-Dec-05 05:50 270 11 gusting 15 3.5 8.9 0.5
2019-Dec-05 04:50 270 11 gusting 13 4.0 8.9 0.5
2019-Dec-05 03:50 270 13 gusting 15 4.5 8.9 0.6
2019-Dec-05 02:50 280 13 gusting 17 4.6 8.9 0.5
2019-Dec-05 01:50 230 9 gusting 13 3.6 8.9 0.4
2019-Dec-05 00:50 210 9 gusting 11 3.7 8.9 0.4
2019-Dec-04 23:50 220 11 gusting 13 3.9 8.9 0.5
2019-Dec-04 22:50 240 11 gusting 15 3.7 8.9 0.5
2019-Dec-04 21:50 220 9 gusting 11 3.5 8.9 0.5
2019-Dec-04 20:50 250 9 gusting 11 3.6 8.9 0.5
2019-Dec-04 19:50 240 9 gusting 13 3.2 8.9 0.6
2019-Dec-04 18:50 250 11 gusting 13 2.9 8.9 0.8
2019-Dec-04 17:50 260 13 gusting 15 2.9 8.9 0.8
2019-Dec-04 16:50 250 11 gusting 15 2.5 8.9 0.9
2019-Dec-04 15:50 240 13 gusting 15 2.0 8.8 1.0
2019-Dec-04 14:50 240 13 gusting 15 1.6 8.8 1.0
2019-Dec-04 13:50 250 13 gusting 15 1.6 8.8 1.1
2019-Dec-04 12:50 240 11 gusting 13 1.3 8.8 1.1
2019-Dec-04 11:50 270 11 gusting 15 1.9 8.9 1.2
2019-Dec-04 10:50 270 13 gusting 15 1.8 8.9 1.4
2019-Dec-04 09:50 280 15 gusting 19 2.0 8.9 1.6
2019-Dec-04 08:50 310 15 gusting 19 1.7 9.0 1.7
2019-Dec-04 07:50 300 17 gusting 21 1.7 9.0 1.7
2019-Dec-04 06:50 290 19 gusting 23 1.7 9.0 2.0
2019-Dec-04 05:50 310 21 gusting 25 1.6 9.0 2.1
2019-Dec-04 04:50 310 21 gusting 25 1.7 9.0 2.7
2019-Dec-04 03:50 310 23 gusting 27 1.8 9.1 2.5
2019-Dec-04 02:50 310 23 gusting 29 1.9 9.1 2.9
2019-Dec-04 01:50 310 23 gusting 29 2.0 9.1 3.3
2019-Dec-04 00:50 320 25 gusting 31 2.1 9.1 3.1
2019-Dec-03 23:50 320 25 gusting 31 2.4 9.1 3.3
2019-Dec-03 22:50 320 27 gusting 33 1.9 9.1 3.6
2019-Dec-03 21:50 320 25 gusting 31 2.3 9.1 3.5
2019-Dec-03 20:50 310 27 gusting 33 1.2 9.1 3.5
2019-Dec-03 19:50 310 25 gusting 29 1.5 9.2 3.8
2019-Dec-03 18:50 320 25 gusting 31 1.5 9.2 4.1
2019-Dec-03 17:50 310 23 gusting 27 1.5 9.2 3.6